Location: Salamanca
(40.9670°N, 5.6500°W)
Time: 04:58:35
(UTC+02:00)

Daily predictions for brighter satellites

Satellite Brightness Start Highest point End
(mag) Time Altitude Azimuth Time Altitude Azimuth Time Altitude Azimuth
CZ-4C R/B 4.2 04:47:38 33° E 04:47:38 33° E 04:52:26 10° ESE
Cosmos 1943 Rocket 4.4 05:06:48 19° NE 05:06:48 19° NE 05:08:17 10° NNE
Okean O Rocket 4.5 05:18:55 10° ENE 05:21:09 14° E 05:21:12 14° E
USA 229 DEB 4.3 05:25:15 52° ENE 05:25:15 52° ENE 05:30:36 10° NE
USA 229 4.3 05:25:19 52° ENE 05:25:19 52° ENE 05:30:41 10° NE
Lacrosse 5 4.3 05:42:31 15° NNE 05:42:31 15° NNE 05:43:47 10° NNE
USA 267 3.5 05:33:41 10° SE 05:39:11 65° ESE 05:39:11 65° ESE
Cosmos 2369 Rocket 4.1 05:54:21 19° N 05:54:21 19° N 05:56:08 10° N
SJ 16-02 3.3 06:11:19 12° SSE 06:14:40 27° E 06:18:22 10° NE
Nadezhda 1 Rocket 3.9 06:20:25 65° WNW 06:20:25 65° WNW 06:26:31 10° N
Cosmos 2219 3.9 06:16:33 10° NNW 06:22:06 52° ENE 06:27:34 10° SE
Cosmos 1656 Rocket 3.6 06:25:44 70° WNW 06:25:44 70° WNW 06:31:20 10° NNE
CZ-4C R/B 3.1 06:32:56 47° W 06:33:46 49° WSW 06:41:24 10° S
Meteor 1-31 Rocket 3.9 06:34:00 10° NNE 06:37:38 42° E 06:41:15 10° S
ADEOS II 2.7 06:32:56 10° N 06:36:47 40° NW 06:36:47 40° NW
MOS 1-B 4.4 06:33:52 10° N 06:39:29 54° WNW 06:40:02 52° W
PAYLOAD B 4.1 06:35:56 10° NNE 06:41:27 89° E 06:46:59 10° SSW
Meteor 2-5 Rocket 3.9 06:35:59 10° S 06:41:53 80° E 06:47:43 10° NNE
CZ-4B DEB 4.1 06:39:02 10° NNE 06:44:33 90° NW 06:50:05 10° SSW
Cosmos 1125 Rocket 3.6 06:41:46 14° S 06:46:21 76° ESE 06:51:39 10° NNE
Cosmos 1943 Rocket 3.7 06:48:21 20° NNW 06:48:21 20° NNW 06:51:17 10° N
Meteor 1-16 Rocket 4.2 06:43:10 10° N 06:48:53 89° E 06:54:43 10° S
Cosmos 2154 Rocket 4.2 06:50:20 10° NNW 06:56:21 47° W 07:02:18 10° SSW
Cosmos-2242 2.8 06:52:18 10° NNW 06:56:35 74° W 07:00:53 10° S
CZ-4B R/B 3.1 06:51:23 10° N 06:56:52 78° WNW 07:02:25 10° SSW
IRS-1C Rocket 4.0 06:52:30 10° NNE 06:57:48 85° WNW 07:03:04 10° SSW
Okean O Rocket 1.6 06:53:31 10° N 06:57:49 54° WNW 06:58:39 46° WSW
Meteor 2-21 4.3 06:56:07 10° NNW 07:02:11 75° W 07:08:15 10° S
ERBS 2.3 07:04:13 51° NW 07:05:00 82° NE 07:08:27 10° SE
SL-8 Rocket 4.0 06:59:00 10° N 07:05:21 89° W 07:11:41 10° S
EO 1 Del DPAF 4.4 07:02:05 10° SE 07:05:43 45° ENE 07:09:24 10° N
OAO 2 Rocket 4.3 07:05:55 27° SW 07:07:19 31° SSW 07:11:42 10° SE
MTI 4.2 07:08:53 10° SSE 07:12:05 63° ENE 07:15:18 10° N
NOSS 3-1 (C) 3.6 07:09:28 28° WSW 07:12:19 50° NW 07:18:37 10° NNE
Okean-O 3.4 07:10:20 10° NNE 07:14:41 53° E 07:19:00 10° S
Landsat 4 3.6 07:11:38 10° S 07:15:23 68° WSW 07:19:09 10° NNW
Cosmos 1048 Rocket 3.9 07:10:53 10° NNW 07:16:03 70° WSW 07:21:16 10° S
Milstar 3 4.2 07:14:07 16° SW 07:17:40 24° S 07:23:44 10° SE
NOSS 3-1 (A) 3.4 07:14:35 19° SW 07:18:47 62° NW 07:25:14 10° NNE
SJ-6F 4.3 07:17:08 10° N 07:21:12 70° WNW 07:25:14 10° SSW
COSMO-SKYMED 1 3.3 07:17:44 10° SSE 07:21:58 56° ENE 07:26:14 10° N
Cosmos 158 Rocket 4.2 07:17:13 10° NNW 07:22:26 51° WSW 07:27:36 10° S
USA 267 4.1 07:18:11 10° S 07:23:36 28° SW 07:26:34 20° W
Meteor 2-14 Rocket 4.4 07:17:58 10° NNW 07:23:57 64° W 07:29:56 10° S
Meteor PRIRODA 4.1 07:20:54 10° N 07:24:24 38° WNW 07:27:13 14° SW
Lacrosse 5 4.1 07:22:31 10° NNW 07:24:44 13° N 07:26:56 10° NNE
CZ-2C R/B 3.8 07:21:12 10° S 07:25:52 58° W 07:30:32 10° NNW
Meteor 1-28 Rocket 3.1 07:22:51 10° S 07:26:38 72° WSW 07:30:28 10° NNW
Cosmos 2221 3.9 07:24:28 10° N 07:28:40 42° ENE 07:32:48 10° SSE
Meteor 2-16 Rocket 4.4 07:22:57 10° NNW 07:29:04 70° W 07:35:09 10° S
Cosmos 2218 Rocket 4.0 07:27:33 10° NNW 07:33:44 65° W 07:39:56 10° S
DEBRIS 4.5 07:29:29 17° W 07:35:25 37° NNW 07:38:43 10° NE
Cosmos 1842 Rocket 3.4 07:32:02 10° NNW 07:36:22 68° W 07:40:39 10° S
Cosmos 2227 Rocket 2.4 07:32:06 10° NNW 07:37:48 79° ENE 07:43:28 10° SSE
ORS 1 (USA 231) 4.4 07:36:31 26° W 07:37:59 74° S 07:40:54 10° E
Cosmos 2084 Rocket 3.8 07:34:02 10° SSW 07:38:20 66° ESE 07:42:24 10° NE
ATLAS 3B R/B 4.4 07:32:57 10° NNW 07:38:29 26° NE 07:43:49 10° E
Tiangong 2 3.2 07:38:31 14° SW 07:39:09 14° SW 07:40:58 10° S
Meteor 1-24 Rocket 3.9 07:33:22 10° SSW 07:39:15 55° WNW 07:45:04 10° N
ATLAS CENTAUR R/B 4.1 07:45:43 10° NNE 07:46:39 11° NE 07:47:35 10° NE
BREEZE-M DEB (TANK) 4.2 07:44:49 15° W 07:48:19 53° N 08:03:16 10° ENE
NOSS 2-3 (C) 4.3 07:44:11 10° SSW 07:48:45 67° ESE 07:54:03 10° NE
SJ 16-02 2.3 07:49:29 10° WSW 07:53:12 26° WNW 07:56:55 10° N
Nadezhda 3 Rocket 4.2 07:47:48 10° S 07:54:07 79° E 08:00:25 10° N
Cosmos 1674 2.6 07:54:24 10° SSW 07:58:05 63° W 08:01:48 10° N
Feng Yun 1-1 Rocket 4.5 07:58:42 10° N 08:04:07 52° WNW 08:09:41 10° SW
Okean 3 Rocket 3.6 07:59:48 10° S 08:04:16 90° E 08:08:44 10° N
Cosmos 2219 4.3 08:01:37 10° NW 08:05:48 22° W 08:09:57 10° SSW
GP-B 3.7 08:03:04 10° SSE 08:07:25 62° E 08:11:49 10° N
Cosmos 2344 4.1 08:01:09 10° SSW 08:08:43 69° ESE 08:16:57 10° NE
Cosmos 1076 Rocket 3.6 08:05:40 10° S 08:10:01 88° E 08:14:22 10° N
SKYMED 2 4.0 08:05:58 10° S 08:10:03 41° W 08:14:11 10° NNW
Cosmos 1726 2.2 08:07:29 10° N 08:11:09 80° E 08:14:49 10° S
OE (NEXTSAT) 4.4 08:09:27 10° WNW 08:13:02 90° SSE 08:16:37 10° ESE
Cosmos 2297 Rocket 2.3 08:09:46 10° NNW 08:15:21 62° WSW 08:20:53 10° S
Cosmos 1656 3.7 08:09:51 10° SSW 08:15:31 72° WNW 08:21:14 10° NNE
Cosmos 1766 Rocket 4.3 08:11:29 10° S 08:15:44 60° E 08:20:02 10° NNE
Cosmos 1607 4.2 08:11:36 10° NNW 08:18:07 85° NE 08:24:35 10° SSE
CZ-3 R/B 4.3 08:15:12 10° W 08:26:24 17° WSW 08:32:14 10° SSW
